Simultaneous Nadir Overpasses (SNOs) Predictions

Prediction of SNOs between FY3D and AQUA Satellite Orbit:

Table of predicted SNOs for the next 14.0 days since TLE Epoch: 5/4/2019
Index Date (FY3D) Time (FY3D) Lat,Lon (FY3D) SZA (FY3D ) Date (AQUA) Time (AQUA) Lat,Lon (AQUA) SZA (AQUA ) Distance(km) Time Diff (sec)
1 05/05/2019 10:55:44 -66.56, 59.06 88.82 05/05/2019 10:56:47 -66.56, 59.06 88.89 0.21 63
2 05/05/2019 11:45:12 70.60,-128.24 86.97 05/05/2019 11:45:00 70.60,-128.29 87.00 2.18 12
3 05/08/2019 03:12:03 -66.97, 175.41 89.97 05/08/2019 03:13:07 -66.97, 175.36 90.03 2.03 64
4 05/08/2019 04:01:49 70.05, -13.22 86.82 05/08/2019 04:01:37 70.05, -13.20 86.83 0.85 12
5 05/10/2019 19:28:42 -66.35, -69.41 90.03 05/10/2019 19:29:46 -66.35, -69.40 90.10 0.56 64
6 05/10/2019 20:18:08 70.50, 103.35 85.65 05/10/2019 20:17:57 70.49, 103.31 85.68 1.49 11
7 05/13/2019 11:44:59 -66.92, 47.11 91.27 05/13/2019 11:46:04 -66.92, 47.07 91.32 1.74 65
8 05/13/2019 12:34:44 70.04,-141.47 85.47 05/13/2019 12:34:33 70.05,-141.45 85.48 0.98 11
9 05/16/2019 04:01:36 -66.40, 162.41 91.35 05/16/2019 04:02:41 -66.40, 162.42 91.42 0.36 65
10 05/16/2019 04:51:02 70.54, -24.82 84.33 05/16/2019 04:50:52 70.53, -24.87 84.36 1.91 10




NCC Satellite Simultaneous Nadir Overpasses (SNOs) Prediction Service
